Satellite: NOAA-11
Catalog number: 19531
Epoch time:      08059.34345984
Element set:      57
Inclination:      098.7969 deg
RA of node:       150.2060 deg
Eccentricity:    0.0011941
Arg of perigee:   025.1134 deg
Mean anomaly:     335.0587 deg
Mean motion:   14.14866095 rev/day
Decay rate:      -1.78e-06 rev/day^2
Epoch rev:             237
Checksum:              303

Satellite: NOAA-12
Catalog number: 21263
Epoch time:      08059.49631089
Element set:     564
Inclination:      098.7664 deg
RA of node:       061.4630 deg
Eccentricity:    0.0013418
Arg of perigee:   084.6106 deg
Mean anomaly:     275.6604 deg
Mean motion:   14.25517976 rev/day
Decay rate:       -9.3e-07 rev/day^2
Epoch rev:           87276
Checksum:              327

Satellite: MET-3/5
Catalog number: 21655
Epoch time:      08059.41742151
Element set:     397
Inclination:      082.5576 deg
RA of node:       181.9162 deg
Eccentricity:    0.0012192
Arg of perigee:   290.2123 deg
Mean anomaly:     069.7682 deg
Mean motion:   13.17014140 rev/day
Decay rate:        5.1e-07 rev/day^2
Epoch rev:           79513
Checksum:              290

Satellite: MET-2/21
Catalog number: 22782
Epoch time:      08058.92970016
Element set:      75
Inclination:      082.5487 deg
RA of node:       199.0219 deg
Eccentricity:    0.0021329
Arg of perigee:   237.2943 deg
Mean anomaly:     122.6166 deg
Mean motion:   13.83625887 rev/day
Decay rate:        6.0e-08 rev/day^2
Epoch rev:           73188
Checksum:              325

Satellite: OKEAN-4
Catalog number: 23317
Epoch time:      08059.38459769
Element set:     518
Inclination:      082.5361 deg
RA of node:       057.5183 deg
Eccentricity:    0.0023684
Arg of perigee:   126.0948 deg
Mean anomaly:     234.2443 deg
Mean motion:   14.82581564 rev/day
Decay rate:       2.08e-06 rev/day^2
Epoch rev:           72201
Checksum:              312

Satellite: NOAA-14
Catalog number: 23455
Epoch time:      08059.42397089
Element set:      38
Inclination:      098.9555 deg
RA of node:       131.5623 deg
Eccentricity:    0.0010391
Arg of perigee:   095.6958 deg
Mean anomaly:     264.5397 deg
Mean motion:   14.13734353 rev/day
Decay rate:      -2.55e-06 rev/day^2
Epoch rev:           67884
Checksum:              343

Satellite: SICH-1
Catalog number: 23657
Epoch time:      08059.39932755
Element set:     316
Inclination:      082.5291 deg
RA of node:       198.4581 deg
Eccentricity:    0.0025429
Arg of perigee:   118.9250 deg
Mean anomaly:     241.4517 deg
Mean motion:   14.81554543 rev/day
Decay rate:       1.21e-06 rev/day^2
Epoch rev:           67396
Checksum:              319

Satellite: NOAA-15
Catalog number: 25338
Epoch time:      08059.44708362
Element set:     368
Inclination:      098.5507 deg
RA of node:       054.1255 deg
Eccentricity:    0.0010829
Arg of perigee:   007.4847 deg
Mean anomaly:     352.6499 deg
Mean motion:   14.24688262 rev/day
Decay rate:        8.9e-07 rev/day^2
Epoch rev:           50917
Checksum:              337

Satellite: RESURS
Catalog number: 25394
Epoch time:      08058.73509853
Element set:    0892
Inclination:      098.4032 deg
RA of node:       107.6488 deg
Eccentricity:    0.0001735
Arg of perigee:   130.0471 deg
Mean anomaly:     230.0861 deg
Mean motion:   14.24153680 rev/day
Decay rate:       -9.0e-08 rev/day^2
Epoch rev:           50072
Checksum:              284

Satellite: FENGYUN1
Catalog number: 25730
Epoch time:      08059.24328564
Element set:     350
Inclination:      098.7175 deg
RA of node:       038.7753 deg
Eccentricity:    0.0021940
Arg of perigee:   119.1702 deg
Mean anomaly:     241.1667 deg
Mean motion:   14.07699179 rev/day
Decay rate:       1.76e-06 rev/day^2
Epoch rev:           45349
Checksum:              317

Satellite: OKEAN-0
Catalog number: 25860
Epoch time:      08059.85549990
Element set:     301
Inclination:      097.7446 deg
RA of node:       055.2750 deg
Eccentricity:    0.0000604
Arg of perigee:   055.0405 deg
Mean anomaly:     305.0856 deg
Mean motion:   14.73504432 rev/day
Decay rate:        2.7e-07 rev/day^2
Epoch rev:           46329
Checksum:              290

Satellite: NOAA-16
Catalog number: 26536
Epoch time:      08059.48115047
Element set:     824
Inclination:      099.1499 deg
RA of node:       046.2943 deg
Eccentricity:    0.0010614
Arg of perigee:   169.2592 deg
Mean anomaly:     190.8800 deg
Mean motion:   14.12469339 rev/day
Decay rate:      -2.62e-06 rev/day^2
Epoch rev:           38328
Checksum:              323

Satellite: NOAA-17
Catalog number: 27453
Epoch time:      08059.43700283
Element set:     823
Inclination:      098.5464 deg
RA of node:       127.1877 deg
Eccentricity:    0.0012645
Arg of perigee:   070.8594 deg
Mean anomaly:     289.3959 deg
Mean motion:   14.23953145 rev/day
Decay rate:       1.98e-06 rev/day^2
Epoch rev:           29518
Checksum:              346

